| time (UTC) | temp F | wind direction | speed MPH | gust MPH | rain 1hr in | rain 24hr in | rain mn in | humidity % | barometer mb |
| 20260901192452 | 95 | 307 | 0.0 | 3.0 | 0.00 | 0.00 | 0.00 | 50 | 1015.5 |
| 20260901191948 | 95 | 6 | 0.0 | 3.0 | 0.00 | 0.00 | 0.00 | 51 | 1015.6 |
| 20260901191446 | 95 | 71 | 2.0 | 3.0 | 0.00 | 0.00 | 0.00 | 49 | 1015.2 |
| 20260901190939 | 95 | 96 | 1.0 | 2.0 | 0.00 | 0.00 | 0.00 | 50 | 1015.6 |
| 20260901190434 | 93 | 310 | 2.0 | 5.0 | 0.00 | 0.00 | 0.00 | 52 | 1015.5 |
| 20260901185932 | 93 | 261 | 2.0 | 3.0 | 0.00 | 0.00 | 0.00 | 50 | 1015.7 |
| 20260901185432 | 94 | 301 | 4.0 | 4.0 | 0.00 | 0.00 | 0.00 | 53 | 1015.9 |
| 20260901184926 | 92 | 254 | 3.0 | 5.0 | 0.00 | 0.00 | 0.00 | 52 | 1015.8 |
| 20260901184422 | 94 | 94 | 2.0 | 2.0 | 0.00 | 0.00 | 0.00 | 49 | 1015.8 |
| 20260901183917 | 95 | 286 | 4.0 | 4.0 | 0.00 | 0.00 | 0.00 | 49 | 1016.1 |
| 20260901183416 | 96 | 283 | 0.0 | 3.0 | 0.00 | 0.00 | 0.00 | 48 | 1016.0 |
| 20260901182912 | 96 | 222 | 0.0 | 4.0 | 0.00 | 0.00 | 0.00 | 48 | 1016.1 |
| 20260901182407 | 94 | 144 | 1.0 | 8.0 | 0.00 | 0.00 | 0.00 | 51 | 1016.4 |
| 20260901181902 | 95 | 77 | 3.0 | 3.0 | 0.00 | 0.00 | 0.00 | 51 | 1016.4 |
| 20260901181357 | 94 | 155 | 0.0 | 6.0 | 0.00 | 0.00 | 0.00 | 53 | 1016.4 |
| 20260901180856 | 94 | 77 | 2.0 | 4.0 | 0.00 | 0.00 | 0.00 | 51 | 1016.4 |
| 20260901180355 | 93 | 93 | 3.0 | 3.0 | 0.00 | 0.00 | 0.00 | 52 | 1016.3 |
| 20260901175853 | 95 | 170 | 2.0 | 3.0 | 0.00 | 0.00 | 0.00 | 51 | 1016.5 |
| 20260901175348 | 94 | 330 | 3.0 | 3.0 | 0.00 | 0.00 | 0.00 | 55 | 1016.7 |
| 20260901174844 | 93 | 135 | 2.0 | 3.0 | 0.00 | 0.00 | 0.00 | 54 | 1017.0 |
| 20260901174339 | 93 | 253 | 1.0 | 5.0 | 0.00 | 0.00 | 0.00 | 54 | 1016.7 |
| 20260901173835 | 93 | 269 | 1.0 | 3.0 | 0.00 | 0.00 | 0.00 | 55 | 1016.9 |
| 20260901173329 | 92 | 311 | 0.0 | 4.0 | 0.00 | 0.00 | 0.00 | 57 | 1017.1 |
| 20260901172826 | 92 | 77 | 2.0 | 5.0 | 0.00 | 0.00 | 0.00 | 56 | 1017.3 |
| 20260901172325 | 92 | 235 | 0.0 | 6.0 | 0.00 | 0.00 | 0.00 | 55 | 1017.4 |
| 20260901171823 | 93 | 97 | 2.0 | 3.0 | 0.00 | 0.00 | 0.00 | 55 | 1017.2 |
| 20260901171323 | 94 | 287 | 2.0 | 5.0 | 0.00 | 0.00 | 0.00 | 53 | 1017.1 |
| 20260901170822 | 91 | 253 | 4.0 | 5.0 | 0.00 | 0.00 | 0.00 | 56 | 1017.3 |
| 20260901170317 | 92 | 137 | 4.0 | 6.0 | 0.00 | 0.00 | 0.00 | 56 | 1017.4 |
| 20260901165816 | 91 | 200 | 0.0 | 3.0 | 0.00 | 0.00 | 0.00 | 56 | 1017.4 |
| 20260901165310 | 92 | 264 | 1.0 | 7.0 | 0.00 | 0.00 | 0.00 | 56 | 1017.4 |
| 20260901164807 | 93 | 147 | 2.0 | 7.0 | 0.00 | 0.00 | 0.00 | 55 | 1017.6 |
| 20260901164302 | 93 | 272 | 2.0 | 4.0 | 0.00 | 0.00 | 0.00 | 56 | 1017.6 |
| 20260901163757 | 92 | 80 | 0.0 | 5.0 | 0.00 | 0.00 | 0.00 | 56 | 1017.6 |
| 20260901163257 | 90 | 246 | 2.0 | 5.0 | 0.00 | 0.00 | 0.00 | 58 | 1017.8 |
| 20260901162752 | 92 | 85 | 4.0 | 5.0 | 0.00 | 0.00 | 0.00 | 55 | 1017.8 |
| 20260901162251 | 94 | 243 | 1.0 | 4.0 | 0.00 | 0.00 | 0.00 | 52 | 1017.8 |
| 20260901161750 | 93 | 303 | 2.0 | 3.0 | 0.00 | 0.00 | 0.00 | 56 | 1017.8 |
| 20260901161244 | 91 | 253 | 4.0 | 5.0 | 0.00 | 0.00 | 0.00 | 56 | 1018.0 |
| 20260901160741 | 91 | 131 | 2.0 | 3.0 | 0.00 | 0.00 | 0.00 | 59 | 1018.1 |
| 20260901160237 | 92 | 79 | 2.0 | 4.0 | 0.00 | 0.00 | 0.00 | 58 | 1017.8 |
| 20260901155735 | 91 | 274 | 3.0 | 3.0 | 0.00 | 0.00 | 0.00 | 60 | 1017.9 |
| 20260901155230 | 91 | 279 | 2.0 | 3.0 | 0.00 | 0.00 | 0.00 | 59 | 1017.9 |
| 20260901154725 | 89 | 104 | 0.0 | 4.0 | 0.00 | 0.00 | 0.00 | 63 | 1017.7 |
| 20260901154221 | 90 | 185 | 1.0 | 4.0 | 0.00 | 0.00 | 0.00 | 61 | 1017.9 |
| 20260901153716 | 92 | 251 | 3.0 | 4.0 | 0.00 | 0.00 | 0.00 | 58 | 1017.7 |
| 20260901153210 | 91 | 245 | 1.0 | 3.0 | 0.00 | 0.00 | 0.00 | 64 | 1017.7 |
| 20260901152704 | 90 | 289 | 2.0 | 3.0 | 0.00 | 0.00 | 0.00 | 64 | 1017.5 |
| 20260901152203 | 90 | 55 | 3.0 | 3.0 | 0.00 | 0.00 | 0.00 | 64 | 1017.9 |
| 20260901151659 | 89 | 238 | 1.0 | 3.0 | 0.00 | 0.00 | 0.00 | 67 | 1017.7 |
| 20260901151158 | 89 | 308 | 2.0 | 4.0 | 0.00 | 0.00 | 0.00 | 65 | 1017.7 |
| 20260901150657 | 89 | 227 | 2.0 | 5.0 | 0.00 | 0.00 | 0.00 | 65 | 1017.6 |
| 20260901150155 | 90 | 292 | 0.0 | 3.0 | 0.00 | 0.00 | 0.00 | 65 | 1017.7 |
| 20260901145654 | 88 | 195 | 0.0 | 2.0 | 0.00 | 0.00 | 0.00 | 68 | 1017.8 |
| 20260901145154 | 88 | 264 | 1.0 | 4.0 | 0.00 | 0.00 | 0.00 | 67 | 1017.8 |
| 20260901144649 | 89 | 276 | 2.0 | 3.0 | 0.00 | 0.00 | 0.00 | 67 | 1017.8 |
| 20260901144144 | 88 | 297 | 2.0 | 5.0 | 0.00 | 0.00 | 0.00 | 70 | 1017.6 |
| 20260901143639 | 88 | 258 | 3.0 | 4.0 | 0.00 | 0.00 | 0.00 | 69 | 1017.8 |
| 20260901143136 | 87 | 89 | 0.0 | 5.0 | 0.00 | 0.00 | 0.00 | 71 | 1017.9 |
| 20260901142632 | 87 | 235 | 2.0 | 3.0 | 0.00 | 0.00 | 0.00 | 73 | 1017.7 |
| 20260901142131 | 86 | 286 | 2.0 | 3.0 | 0.00 | 0.00 | 0.00 | 73 | 1018.1 |
| 20260901141626 | 88 | 291 | 2.0 | 2.0 | 0.00 | 0.00 | 0.00 | 71 | 1017.8 |
| 20260901141120 | 87 | 229 | 2.0 | 3.0 | 0.00 | 0.00 | 0.00 | 74 | 1017.9 |
| 20260901140619 | 86 | 311 | 1.0 | 4.0 | 0.00 | 0.00 | 0.00 | 76 | 1018.0 |
| 20260901140118 | 86 | 285 | 1.0 | 2.0 | 0.00 | 0.00 | 0.00 | 76 | 1017.8 |
| 20260901135618 | 85 | 173 | 1.0 | 2.0 | 0.00 | 0.00 | 0.00 | 79 | 1017.9 |
| 20260901135113 | 84 | 154 | 0.0 | 2.0 | 0.00 | 0.00 | 0.00 | 79 | 1017.9 |
| 20260901134610 | 85 | 201 | 0.0 | 1.0 | 0.00 | 0.00 | 0.00 | 79 | 1017.8 |
| 20260901134104 | 84 | 298 | 0.0 | 1.0 | 0.00 | 0.00 | 0.00 | 80 | 1017.8 |
| 20260901133603 | 84 | 57 | 0.0 | 2.0 | 0.00 | 0.00 | 0.00 | 81 | 1017.9 |
| 20260901133102 | 82 | 320 | 1.0 | 2.0 | 0.00 | 0.00 | 0.00 | 84 | 1017.8 |
| 20260901132556 | 82 | 328 | 1.0 | 3.0 | 0.00 | 0.00 | 0.00 | 85 | 1017.7 |
| 20260901132050 | 81 | 259 | 2.0 | 3.0 | 0.00 | 0.00 | 0.00 | 86 | 1017.4 |
| 20260901131544 | 81 | 266 | 1.0 | 3.0 | 0.00 | 0.00 | 0.00 | 86 | 1017.4 |
| 20260901131034 | 80 | 242 | 0.0 | 3.0 | 0.00 | 0.00 | 0.00 | 88 | 1017.3 |
| 20260901130534 | 78 | 294 | 1.0 | 3.0 | 0.00 | 0.00 | 0.00 | 90 | 1017.2 |
| 20260901130033 | 78 | 297 | 2.0 | 3.0 | 0.00 | 0.00 | 0.00 | 91 | 1017.2 |
| 20260901125531 | 78 | 300 | 2.0 | 3.0 | 0.00 | 0.00 | 0.00 | 92 | 1017.3 |
| 20260901125027 | 77 | 264 | 2.0 | 4.0 | 0.00 | 0.00 | 0.00 | 93 | 1017.2 |
| 20260901124527 | 77 | 273 | 1.0 | 3.0 | 0.00 | 0.00 | 0.00 | 94 | 1017.2 |
| 20260901124027 | 76 | 250 | 1.0 | 3.0 | 0.00 | 0.00 | 0.00 | 94 | 1017.2 |
| 20260901123521 | 76 | 287 | 1.0 | 1.0 | 0.00 | 0.00 | 0.00 | 95 | 1017.0 |
| 20260901123016 | 76 | 268 | 1.0 | 2.0 | 0.00 | 0.00 | 0.00 | 95 | 1016.9 |
| 20260901122514 | 76 | 267 | 2.0 | 2.0 | 0.00 | 0.00 | 0.00 | 95 | 1016.9 |
| 20260901122013 | 75 | 276 | 0.0 | 1.0 | 0.00 | 0.00 | 0.00 | 95 | 1017.0 |
| 20260901121508 | 75 | 284 | 0.0 | 0.0 | 0.00 | 0.00 | 0.00 | 95 | 1017.1 |
| 20260901121003 | 75 | 230 | 0.0 | 0.0 | 0.00 | 0.00 | 0.00 | 95 | 1016.9 |
| 20260901120458 | 75 | 322 | 0.0 | 0.0 | 0.00 | 0.00 | 0.00 | 95 | 1017.1 |
| 20260901115953 | 76 | 297 | 0.0 | 0.0 | 0.00 | 0.00 | 0.00 | 94 | 1017.1 |
| 20260901115449 | 76 | 283 | 0.0 | 1.0 | 0.00 | 0.00 | 0.00 | 94 | 1017.0 |
| 20260901114946 | 75 | 309 | 0.0 | 1.0 | 0.00 | 0.00 | 0.00 | 94 | 1017.1 |
| 20260901114441 | 76 | 322 | 0.0 | 0.0 | 0.00 | 0.00 | 0.00 | 94 | 1017.1 |
| 20260901113939 | 76 | 297 | 0.0 | 0.0 | 0.00 | 0.00 | 0.00 | 94 | 1017.0 |
| 20260901113438 | 76 | 309 | 0.0 | 1.0 | 0.00 | 0.00 | 0.00 | 93 | 1017.0 |
| 20260901112934 | 76 | 289 | 0.0 | 1.0 | 0.00 | 0.00 | 0.00 | 93 | 1016.9 |
| 20260901112429 | 76 | 278 | 0.0 | 1.0 | 0.00 | 0.00 | 0.00 | 93 | 1016.7 |
| 20260901111924 | 76 | 230 | 0.0 | 1.0 | 0.00 | 0.00 | 0.00 | 93 | 1016.8 |
| 20260901111423 | 76 | 260 | 0.0 | 2.0 | 0.00 | 0.00 | 0.00 | 93 | 1017.0 |
| 20260901110921 | 76 | 304 | 0.0 | 1.0 | 0.00 | 0.00 | 0.00 | 93 | 1016.7 |
| 20260901110417 | 77 | 311 | 1.0 | 2.0 | 0.00 | 0.00 | 0.00 | 93 | 1016.9 |
| 20260901105913 | 77 | 276 | 1.0 | 2.0 | 0.00 | 0.00 | 0.00 | 93 | 1016.9 |
| 20260901105409 | 77 | 279 | 0.0 | 2.0 | 0.00 | 0.00 | 0.00 | 93 | 1016.8 |
| 20260901104904 | 77 | 227 | 0.0 | 2.0 | 0.00 | 0.00 | 0.00 | 92 | 1016.8 |
| 20260901104359 | 77 | 191 | 0.0 | 0.0 | 0.00 | 0.00 | 0.00 | 92 | 1016.9 |
| 20260901103854 | 77 | 343 | 0.0 | 1.0 | 0.00 | 0.00 | 0.00 | 92 | 1016.9 |
| 20260901103349 | 77 | 240 | 0.0 | 2.0 | 0.00 | 0.00 | 0.00 | 92 | 1017.0 |
| 20260901102849 | 77 | 235 | 0.0 | 0.0 | 0.00 | 0.00 | 0.00 | 91 | 1017.0 |
| 20260901102343 | 77 | 230 | 0.0 | 1.0 | 0.00 | 0.00 | 0.00 | 90 | 1016.8 |
| 20260901101839 | 77 | 293 | 0.0 | 0.0 | 0.00 | 0.00 | 0.00 | 90 | 1017.1 |
| 20260901101338 | 77 | 272 | 0.0 | 0.0 | 0.00 | 0.00 | 0.00 | 89 | 1017.2 |
| 20260901100833 | 77 | 254 | 0.0 | 1.0 | 0.00 | 0.00 | 0.00 | 89 | 1017.0 |
| 20260901100328 | 77 | 267 | 1.0 | 2.0 | 0.00 | 0.00 | 0.00 | 89 | 1017.1 |
| 20260901095827 | 77 | 269 | 0.0 | 2.0 | 0.00 | 0.00 | 0.00 | 89 | 1017.1 |
| 20260901095324 | 77 | 291 | 0.0 | 1.0 | 0.00 | 0.00 | 0.00 | 89 | 1017.2 |
| 20260901094818 | 77 | 74 | 1.0 | 1.0 | 0.00 | 0.00 | 0.00 | 89 | 1017.2 |
| 20260901094313 | 78 | 301 | 0.0 | 0.0 | 0.00 | 0.00 | 0.00 | 89 | 1017.1 |
| 20260901093808 | 77 | 89 | 0.0 | 1.0 | 0.00 | 0.00 | 0.00 | 89 | 1017.0 |
| 20260901093307 | 77 | 255 | 0.0 | 0.0 | 0.00 | 0.00 | 0.00 | 89 | 1017.4 |
| 20260901092804 | 77 | 255 | 0.0 | 0.0 | 0.00 | 0.00 | 0.00 | 89 | 1017.4 |
| 20260901092259 | 77 | 246 | 0.0 | 1.0 | 0.00 | 0.00 | 0.00 | 89 | 1017.5 |
| 20260901091755 | 77 | 297 | 0.0 | 0.0 | 0.00 | 0.00 | 0.00 | 88 | 1017.3 |
| 20260901091250 | 77 | 315 | 0.0 | 0.0 | 0.00 | 0.00 | 0.00 | 88 | 1017.3 |
| 20260901090750 | 77 | 226 | 0.0 | 1.0 | 0.00 | 0.00 | 0.00 | 88 | 1017.1 |
| 20260901090244 | 77 | 116 | 0.0 | 1.0 | 0.00 | 0.00 | 0.00 | 88 | 1017.1 |
| 20260901085741 | 78 | 269 | 0.0 | 2.0 | 0.00 | 0.00 | 0.00 | 87 | 1017.3 |
| 20260901085235 | 78 | 164 | 0.0 | 2.0 | 0.00 | 0.00 | 0.00 | 87 | 1017.1 |
| 20260901084726 | 78 | 286 | 1.0 | 3.0 | 0.00 | 0.00 | 0.00 | 86 | 1016.9 |
| 20260901084223 | 78 | 280 | 1.0 | 2.0 | 0.00 | 0.00 | 0.00 | 86 | 1017.1 |
| 20260901083717 | 78 | 274 | 1.0 | 3.0 | 0.00 | 0.00 | 0.00 | 86 | 1017.2 |
| 20260901083217 | 78 | 260 | 0.0 | 2.0 | 0.00 | 0.00 | 0.00 | 85 | 1017.2 |
| 20260901082715 | 78 | 232 | 0.0 | 2.0 | 0.00 | 0.00 | 0.00 | 85 | 1017.3 |
| 20260901082211 | 78 | 291 | 0.0 | 3.0 | 0.00 | 0.00 | 0.00 | 85 | 1017.1 |
| 20260901081707 | 78 | 271 | 2.0 | 2.0 | 0.00 | 0.00 | 0.00 | 85 | 1016.9 |
| 20260901081206 | 78 | 243 | 1.0 | 2.0 | 0.00 | 0.00 | 0.00 | 85 | 1017.2 |
| 20260901080701 | 78 | 264 | 1.0 | 2.0 | 0.00 | 0.00 | 0.00 | 84 | 1017.0 |
| 20260901080200 | 78 | 250 | 3.0 | 3.0 | 0.00 | 0.00 | 0.00 | 84 | 1017.1 |
| 20260901075655 | 78 | 248 | 0.0 | 2.0 | 0.00 | 0.00 | 0.00 | 84 | 1017.1 |
| 20260901075154 | 77 | 238 | 2.0 | 3.0 | 0.00 | 0.00 | 0.00 | 85 | 1017.1 |
| 20260901074654 | 77 | 301 | 0.0 | 0.0 | 0.00 | 0.00 | 0.00 | 84 | 1017.2 |
| 20260901074149 | 78 | 239 | 0.0 | 1.0 | 0.00 | 0.00 | 0.00 | 84 | 1017.0 |
| 20260901073645 | 78 | 255 | 0.0 | 1.0 | 0.00 | 0.00 | 0.00 | 83 | 1017.2 |
| 20260901073141 | 78 | 299 | 0.0 | 2.0 | 0.00 | 0.00 | 0.00 | 83 | 1017.1 |
| 20260901072636 | 78 | 254 | 0.0 | 2.0 | 0.00 | 0.00 | 0.00 | 83 | 1017.2 |
| 20260901072131 | 78 | 257 | 2.0 | 2.0 | 0.00 | 0.00 | 0.00 | 83 | 1017.3 |
| 20260901071625 | 78 | 89 | 0.0 | 1.0 | 0.00 | 0.00 | 0.00 | 83 | 1017.4 |
| 20260901071125 | 79 | 281 | 0.0 | 1.0 | 0.00 | 0.00 | 0.00 | 82 | 1017.2 |
| 20260901070619 | 79 | 315 | 0.0 | 2.0 | 0.00 | 0.00 | 0.00 | 82 | 1017.1 |
| 20260901070114 | 79 | 266 | 1.0 | 3.0 | 0.00 | 0.00 | 0.00 | 81 | 1017.3 |
| 20260901065608 | 79 | 268 | 0.0 | 2.0 | 0.00 | 0.00 | 0.00 | 81 | 1017.3 |
| 20260901065103 | 80 | 277 | 0.0 | 2.0 | 0.00 | 0.00 | 0.00 | 81 | 1017.1 |
| 20260901064601 | 80 | 204 | 4.0 | 4.0 | 0.00 | 0.00 | 0.00 | 80 | 1017.1 |
| 20260901064056 | 80 | 282 | 0.0 | 4.0 | 0.00 | 0.00 | 0.00 | 80 | 1016.9 |
| 20260901063553 | 80 | 224 | 0.0 | 3.0 | 0.00 | 0.00 | 0.00 | 79 | 1016.8 |
| 20260901063049 | 80 | 210 | 2.0 | 3.0 | 0.00 | 0.00 | 0.00 | 79 | 1016.9 |
| 20260901062544 | 80 | 267 | 1.0 | 3.0 | 0.00 | 0.00 | 0.00 | 78 | 1016.8 |
| 20260901062040 | 81 | 118 | 0.0 | 3.0 | 0.00 | 0.00 | 0.00 | 77 | 1016.9 |
| 20260901061537 | 81 | 224 | 0.0 | 5.0 | 0.00 | 0.00 | 0.00 | 76 | 1016.9 |
| 20260901061036 | 81 | 209 | 2.0 | 4.0 | 0.00 | 0.00 | 0.00 | 76 | 1016.8 |
| 20260901060531 | 81 | 242 | 0.0 | 5.0 | 0.00 | 0.00 | 0.00 | 76 | 1017.1 |
| 20260901060026 | 81 | 323 | 0.0 | 2.0 | 0.00 | 0.00 | 0.00 | 76 | 1017.0 |
| 20260901055521 | 81 | 73 | 1.0 | 3.0 | 0.00 | 0.00 | 0.00 | 75 | 1017.0 |
| 20260901055018 | 82 | 119 | 2.0 | 4.0 | 0.00 | 0.00 | 0.00 | 75 | 1017.0 |
| 20260901054515 | 81 | 285 | 1.0 | 2.0 | 0.00 | 0.00 | 0.00 | 75 | 1016.8 |
| 20260901054011 | 82 | 304 | 0.0 | 2.0 | 0.00 | 0.00 | 0.00 | 74 | 1016.8 |
| 20260901053506 | 82 | 93 | 0.0 | 2.0 | 0.00 | 0.00 | 0.00 | 74 | 1017.0 |
| 20260901053002 | 82 | 164 | 0.0 | 1.0 | 0.00 | 0.00 | 0.00 | 73 | 1016.4 |
| 20260901052457 | 82 | 107 | 1.0 | 2.0 | 0.00 | 0.00 | 0.00 | 72 | 1016.7 |
| 20260901051950 | 83 | 22 | 1.0 | 5.0 | 0.00 | 0.00 | 0.00 | 72 | 1016.9 |
| 20260901051446 | 83 | 277 | 2.0 | 4.0 | 0.00 | 0.00 | 0.00 | 72 | 1016.7 |
| 20260901050945 | 83 | 330 | 0.0 | 6.0 | 0.00 | 0.00 | 0.00 | 72 | 1016.8 |
| 20260901050441 | 83 | 207 | 3.0 | 3.0 | 0.00 | 0.00 | 0.00 | 72 | 1016.5 |
| 20260901045940 | 83 | 329 | 2.0 | 3.0 | 0.00 | 0.00 | 0.00 | 72 | 1016.6 |
| 20260901045435 | 83 | 11 | 0.0 | 5.0 | 0.00 | 0.00 | 0.00 | 71 | 1016.6 |
| 20260901044925 | 84 | 244 | 1.0 | 4.0 | 0.00 | 0.00 | 0.00 | 71 | 1016.4 |
| 20260901044421 | 84 | 308 | 2.0 | 3.0 | 0.00 | 0.00 | 0.00 | 71 | 1016.6 |
| 20260901043916 | 84 | 128 | 0.0 | 4.0 | 0.00 | 0.00 | 0.00 | 70 | 1016.5 |
| 20260901043412 | 84 | 188 | 2.0 | 3.0 | 0.00 | 0.00 | 0.00 | 70 | 1016.4 |
| 20260901042907 | 84 | 244 | 0.0 | 7.0 | 0.00 | 0.00 | 0.00 | 69 | 1016.5 |
| 20260901042401 | 85 | 296 | 3.0 | 3.0 | 0.00 | 0.00 | 0.00 | 69 | 1016.6 |
| 20260901041857 | 85 | 239 | 4.0 | 5.0 | 0.00 | 0.00 | 0.00 | 68 | 1016.4 |
| 20260901041351 | 85 | 200 | 1.0 | 4.0 | 0.00 | 0.00 | 0.00 | 68 | 1016.3 |
| 20260901040845 | 85 | 89 | 2.0 | 9.0 | 0.00 | 0.00 | 0.00 | 67 | 1016.3 |
| 20260901040344 | 85 | 190 | 3.0 | 7.0 | 0.00 | 0.00 | 0.00 | 66 | 1016.6 |
| 20260901035839 | 85 | 260 | 1.0 | 4.0 | 0.00 | 0.00 | 0.00 | 66 | 1016.4 |
| 20260901035337 | 86 | 254 | 1.0 | 3.0 | 0.00 | 0.00 | 0.00 | 65 | 1016.5 |
| 20260901034836 | 86 | 224 | 1.0 | 2.0 | 0.00 | 0.00 | 0.00 | 65 | 1016.2 |
| 20260901034332 | 86 | 181 | 1.0 | 5.0 | 0.00 | 0.00 | 0.00 | 64 | 1016.4 |
| 20260901033831 | 86 | 180 | 1.0 | 5.0 | 0.00 | 0.00 | 0.00 | 64 | 1016.1 |
| 20260901033330 | 86 | 154 | 3.0 | 5.0 | 0.00 | 0.00 | 0.00 | 63 | 1016.0 |
| 20260901032829 | 86 | 246 | 1.0 | 3.0 | 0.00 | 0.00 | 0.00 | 63 | 1016.0 |
| 20260901032329 | 86 | 195 | 0.0 | 5.0 | 0.00 | 0.00 | 0.00 | 62 | 1016.2 |
| 20260901031824 | 86 | 279 | 2.0 | 3.0 | 0.00 | 0.00 | 0.00 | 62 | 1015.9 |
| 20260901031320 | 86 | 85 | 2.0 | 5.0 | 0.00 | 0.00 | 0.00 | 61 | 1016.0 |
| 20260901030819 | 87 | 153 | 4.0 | 4.0 | 0.00 | 0.00 | 0.00 | 60 | 1015.6 |
| 20260901030315 | 87 | 213 | 3.0 | 3.0 | 0.00 | 0.00 | 0.00 | 59 | 1015.7 |
| 20260901025814 | 87 | 158 | 1.0 | 1.0 | 0.00 | 0.00 | 0.00 | 58 | 1015.4 |
| 20260901025309 | 87 | 164 | 2.0 | 4.0 | 0.00 | 0.00 | 0.00 | 58 | 1015.3 |
| 20260901024804 | 86 | 66 | 0.0 | 4.0 | 0.00 | 0.00 | 0.00 | 60 | 1015.2 |
| 20260901024303 | 87 | 109 | 0.0 | 2.0 | 0.00 | 0.00 | 0.00 | 59 | 1015.2 |
| 20260901023801 | 87 | 119 | 0.0 | 2.0 | 0.00 | 0.00 | 0.00 | 58 | 1015.0 |
| 20260901023256 | 87 | 230 | 0.0 | 3.0 | 0.00 | 0.00 | 0.00 | 57 | 1014.9 |
| 20260901022751 | 88 | 234 | 2.0 | 2.0 | 0.00 | 0.00 | 0.00 | 57 | 1015.0 |
| 20260901022247 | 88 | 189 | 1.0 | 1.0 | 0.00 | 0.00 | 0.00 | 57 | 1014.6 |
| 20260901021742 | 88 | 217 | 0.0 | 1.0 | 0.00 | 0.00 | 0.00 | 57 | 1014.5 |
| 20260901021238 | 88 | 269 | 0.0 | 1.0 | 0.00 | 0.00 | 0.00 | 57 | 1014.5 |
| 20260901020733 | 88 | 256 | 0.0 | 1.0 | 0.00 | 0.00 | 0.00 | 56 | 1014.7 |
| 20260901020228 | 88 | 240 | 0.0 | 1.0 | 0.00 | 0.00 | 0.00 | 56 | 1014.5 |
| 20260901015723 | 89 | 194 | 0.0 | 1.0 | 0.00 | 0.00 | 0.00 | 55 | 1014.3 |
| 20260901015219 | 89 | 244 | 0.0 | 2.0 | 0.00 | 0.00 | 0.00 | 55 | 1014.3 |
| 20260901014718 | 90 | 144 | 2.0 | 2.0 | 0.00 | 0.00 | 0.00 | 54 | 1014.4 |
| 20260901014214 | 90 | 162 | 0.0 | 3.0 | 0.00 | 0.00 | 0.00 | 53 | 1014.2 |
| 20260901013710 | 90 | 215 | 0.0 | 2.0 | 0.00 | 0.00 | 0.00 | 54 | 1014.4 |
| 20260901013205 | 90 | 194 | 2.0 | 3.0 | 0.00 | 0.00 | 0.00 | 53 | 1014.2 |
| 20260901012701 | 91 | 131 | 3.0 | 4.0 | 0.00 | 0.00 | 0.00 | 53 | 1014.1 |
| 20260901012155 | 91 | 184 | 0.0 | 3.0 | 0.00 | 0.00 | 0.00 | 52 | 1014.2 |
| 20260901011651 | 91 | 142 | 5.0 | 5.0 | 0.00 | 0.00 | 0.00 | 52 | 1014.2 |
| 20260901011150 | 91 | 144 | 3.0 | 6.0 | 0.00 | 0.00 | 0.00 | 51 | 1014.0 |
| 20260901010640 | 92 | 126 | 3.0 | 6.0 | 0.00 | 0.00 | 0.00 | 50 | 1014.1 |
| 20260901010139 | 92 | 206 | 2.0 | 5.0 | 0.00 | 0.00 | 0.00 | 50 | 1013.8 |
| 20260901005638 | 92 | 119 | 3.0 | 5.0 | 0.00 | 0.00 | 0.00 | 49 | 1014.0 |
| 20260901005134 | 93 | 150 | 0.0 | 8.0 | 0.00 | 0.00 | 0.00 | 49 | 1013.9 |
| 20260901004633 | 93 | 163 | 2.0 | 9.0 | 0.00 | 0.00 | 0.00 | 47 | 1013.6 |
| 20260901004128 | 94 | 144 | 0.0 | 8.0 | 0.00 | 0.00 | 0.00 | 44 | 1013.8 |
| 20260901003623 | 94 | 107 | 4.0 | 4.0 | 0.00 | 0.00 | 0.00 | 42 | 1013.8 |
| 20260901003121 | 95 | 198 | 1.0 | 1.0 | 0.00 | 0.00 | 0.00 | 41 | 1013.7 |
| 20260901002616 | 95 | 164 | 0.0 | 2.0 | 0.00 | 0.00 | 0.00 | 41 | 1013.9 |
| 20260901002111 | 96 | 172 | 0.0 | 3.0 | 0.00 | 0.00 | 0.00 | 39 | 1013.9 |
| 20260901001606 | 96 | 183 | 1.0 | 3.0 | 0.00 | 0.00 | 0.00 | 39 | 1013.5 |
| 20260901001101 | 96 | 274 | 0.0 | 3.0 | 0.00 | 0.00 | 0.00 | 39 | 1013.6 |
| 20260901000555 | 96 | 233 | 0.0 | 4.0 | 0.00 | 0.00 | 0.00 | 39 | 1013.5 |
| 20260901000051 | 97 | 148 | 2.0 | 3.0 | 0.00 | 0.00 | 0.00 | 38 | 1013.6 |
| 20260831235545 | 97 | 89 | 0.0 | 4.0 | 0.00 | 0.00 | 0.00 | 38 | 1013.4 |
| 20260831235040 | 97 | 204 | 2.0 | 3.0 | 0.00 | 0.00 | 0.00 | 37 | 1013.5 |
| 20260831234534 | 97 | 153 | 0.0 | 4.0 | 0.00 | 0.00 | 0.00 | 37 | 1013.4 |
| 20260831234030 | 97 | 161 | 3.0 | 4.0 | 0.00 | 0.00 | 0.00 | 37 | 1013.7 |
| 20260831233525 | 97 | 162 | 3.0 | 7.0 | 0.00 | 0.00 | 0.00 | 37 | 1013.6 |
| 20260831233021 | 97 | 80 | 3.0 | 4.0 | 0.00 | 0.00 | 0.00 | 39 | 1013.5 |
| 20260831232516 | 97 | 92 | 1.0 | 5.0 | 0.00 | 0.00 | 0.00 | 39 | 1013.5 |
| 20260831232012 | 97 | 100 | 4.0 | 8.0 | 0.00 | 0.00 | 0.00 | 38 | 1013.6 |
| 20260831231509 | 97 | 75 | 3.0 | 9.0 | 0.00 | 0.00 | 0.00 | 39 | 1013.3 |
| 20260831231004 | 97 | 116 | 3.0 | 6.0 | 0.00 | 0.00 | 0.00 | 38 | 1013.9 |
| 20260831230459 | 98 | 27 | 0.0 | 3.0 | 0.00 | 0.00 | 0.00 | 39 | 1013.6 |
| 20260831225953 | 97 | 124 | 3.0 | 6.0 | 0.00 | 0.00 | 0.00 | 38 | 1013.7 |
| 20260831225449 | 97 | 196 | 0.0 | 3.0 | 0.00 | 0.00 | 0.00 | 37 | 1013.6 |
| 20260831224943 | 98 | 89 | 4.0 | 4.0 | 0.00 | 0.00 | 0.00 | 37 | 1013.7 |
| 20260831224443 | 98 | 167 | 0.0 | 4.0 | 0.00 | 0.00 | 0.00 | 37 | 1013.7 |
| 20260831223938 | 97 | 166 | 2.0 | 6.0 | 0.00 | 0.00 | 0.00 | 37 | 1013.6 |
| 20260831223433 | 97 | 110 | 3.0 | 10.0 | 0.00 | 0.00 | 0.00 | 37 | 1013.6 |
| 20260831222930 | 98 | 298 | 1.0 | 5.0 | 0.00 | 0.00 | 0.00 | 38 | 1013.8 |
| 20260831222426 | 98 | 77 | 2.0 | 5.0 | 0.00 | 0.00 | 0.00 | 38 | 1013.7 |
| 20260831221920 | 98 | 192 | 0.0 | 5.0 | 0.00 | 0.00 | 0.00 | 38 | 1013.9 |
| 20260831221416 | 98 | 4 | 1.0 | 4.0 | 0.00 | 0.00 | 0.00 | 38 | 1013.7 |
| 20260831220911 | 97 | 105 | 4.0 | 8.0 | 0.00 | 0.00 | 0.00 | 40 | 1014.0 |
| 20260831220401 | 97 | 244 | 0.0 | 2.0 | 0.00 | 0.00 | 0.00 | 40 | 1013.8 |
| 20260831215856 | 95 | 130 | 0.0 | 5.0 | 0.00 | 0.00 | 0.00 | 42 | 1014.2 |
| 20260831215352 | 95 | 77 | 3.0 | 9.0 | 0.00 | 0.00 | 0.00 | 43 | 1013.8 |
| 20260831214848 | 95 | 87 | 4.0 | 8.0 | 0.00 | 0.00 | 0.00 | 42 | 1014.1 |
| 20260831214345 | 97 | 121 | 3.0 | 9.0 | 0.00 | 0.00 | 0.00 | 41 | 1013.8 |
| 20260831213840 | 97 | 84 | 5.0 | 9.0 | 0.00 | 0.00 | 0.00 | 42 | 1014.2 |
| 20260831213337 | 97 | 122 | 3.0 | 6.0 | 0.00 | 0.00 | 0.00 | 40 | 1014.3 |
| 20260831212831 | 97 | 91 | 4.0 | 6.0 | 0.00 | 0.00 | 0.00 | 40 | 1014.1 |
| 20260831212328 | 97 | 108 | 4.0 | 8.0 | 0.00 | 0.00 | 0.00 | 41 | 1014.3 |
| 20260831211827 | 97 | 101 | 2.0 | 8.0 | 0.00 | 0.00 | 0.00 | 42 | 1014.3 |
| 20260831211322 | 98 | 106 | 3.0 | 6.0 | 0.00 | 0.00 | 0.00 | 40 | 1014.4 |
| 20260831210821 | 98 | 84 | 2.0 | 7.0 | 0.00 | 0.00 | 0.00 | 41 | 1014.4 |
| 20260831210318 | 99 | 239 | 1.0 | 4.0 | 0.00 | 0.00 | 0.00 | 40 | 1014.7 |
| 20260831205817 | 96 | 141 | 1.0 | 5.0 | 0.00 | 0.00 | 0.00 | 44 | 1014.6 |
| 20260831205313 | 96 | 321 | 2.0 | 8.0 | 0.00 | 0.00 | 0.00 | 43 | 1014.9 |
| 20260831204808 | 97 | 99 | 6.0 | 10.0 | 0.00 | 0.00 | 0.00 | 42 | 1015.2 |
| 20260831204307 | 98 | 114 | 6.0 | 7.0 | 0.00 | 0.00 | 0.00 | 42 | 1014.9 |
| 20260831203806 | 96 | 76 | 2.0 | 6.0 | 0.00 | 0.00 | 0.00 | 42 | 1015.0 |
| 20260831203301 | 96 | 136 | 3.0 | 4.0 | 0.00 | 0.00 | 0.00 | 44 | 1015.2 |
| 20260831202759 | 97 | 188 | 2.0 | 3.0 | 0.00 | 0.00 | 0.00 | 42 | 1015.4 |
| 20260831202254 | 96 | 112 | 2.0 | 6.0 | 0.00 | 0.00 | 0.00 | 43 | 1015.3 |
| 20260831201749 | 98 | 130 | 1.0 | 3.0 | 0.00 | 0.00 | 0.00 | 43 | 1015.7 |
| 20260831201247 | 98 | 281 | 1.0 | 4.0 | 0.00 | 0.00 | 0.00 | 42 | 1015.5 |
| 20260831200738 | 96 | 255 | 3.0 | 3.0 | 0.00 | 0.00 | 0.00 | 44 | 1015.7 |
| 20260831200232 | 96 | 144 | 2.0 | 8.0 | 0.00 | 0.00 | 0.00 | 45 | 1015.9 |
| 20260831195728 | 96 | 120 | 3.0 | 5.0 | 0.00 | 0.00 | 0.00 | 45 | 1015.8 |
| 20260831195224 | 96 | 156 | 5.0 | 5.0 | 0.00 | 0.00 | 0.00 | 46 | 1015.9 |
| 20260831194718 | 98 | 223 | 0.0 | 3.0 | 0.00 | 0.00 | 0.00 | 44 | 1015.9 |
| 20260831194214 | 97 | 238 | 2.0 | 3.0 | 0.00 | 0.00 | 0.00 | 45 | 1016.0 |
| 20260831193707 | 95 | 85 | 4.0 | 7.0 | 0.00 | 0.00 | 0.00 | 49 | 1016.2 |
| 20260831193203 | 95 | 129 | 2.0 | 4.0 | 0.00 | 0.00 | 0.00 | 48 | 1016.1 |
| 20260831192658 | 96 | 212 | 2.0 | 4.0 | 0.00 | 0.00 | 0.00 | 48 | 1016.3 |